sat.trackr.live / text

‹ back to catalog

STARLINK-30523

NORAD 57997 · 2023-153G

PAYLOAD ACTIVE UNKNOWN

§ Identity

Operator
Country
US
Launch date
2023-10-05
Launch site
AFETR
Launch vehicle
Mass (kg)
RCS (m²)

Purposes: comms

External: N2YO · Heavens-Above · Gunter

§ Orbital elements

Epoch: 2026-05-24T23:29:46.147776Z

Period
94.27 min
Inclination
43.0064°
Eccentricity
0.0001780
Mean motion
15.27582825 rev/d
Perigee alt
481.8 km
Apogee alt
484.3 km
Semi-major
6,861.2 km
B*
5.4263e-5
RAAN
356.2319°
Arg perigee
277.2575°
Mean anomaly
82.8074°
Rev number
14,656

§ Raw data

STARLINK-305231 57997U 23153G   26144.97900634  .00001231  00000+0  54263-4 0  99962 57997  43.0064 356.2319 0001780 277.2575  82.8074 15.27582825146562

JSON: /api/v1/satellites/57997 · /tle

For live sub-satellite position, see the globe view (requires WebGL).

§ Visibility from observer

Set your observer location to see the next 7 days of passes ≥ 10°. The values pass through the URL so the page stays shareable.

No JS? Fill the form by hand. The geolocation button needs JavaScript.